Regional Weather Roundup
Issued by NWS

Home | Current Version | Previous Version | Text Only | Print | Product List | Glossary Off
Versions: 1 2 3 4 5 6 7 8 9 10 11 12 13 14 15 16 17 18 19 20 21 22 23 24 25 26 27 28 29 30 31 32 33 34 35 36 37 38 39 40 41 42 43 44 45 46 47 48 49 50

772
ASUS43 KLSX 260407
RWRMO

WEATHER SUMMARY FOR MISSOURI
NATIONAL WEATHER SERVICE SPRINGFIELD MO
1100 PM CDT MON SEP 25 2017

NOTE: "FAIR" INDICATES FEW OR NO CLOUDS BELOW 12,000 FEET WITH NO
       SIGNIFICANT WEATHER AND/OR OBSTRUCTIONS TO VISIBILITY.
       CURRENT SKY AND/OR WEATHER CONDITIONS ARE NOT AVAILABLE FOR
       CHILLICOTHE AND FARMINGTON.

MOZ001>031-035>038-043-044-053-054-260500-
...NORTHERN AND WESTERN MISSOURI...

CITY           SKY/WX    TMP DP  RH WIND       PRES   REMARKS
KANSAS CTY INT CLOUDY    67  64  90 N12       29.96S
KANSAS C DTWN  MOCLDY    71  65  81 NW10G20   29.95R
LEE`S SUMMIT   CLOUDY    70  66  87 NW12      29.96R
ST JOSEPH      RAIN      65  65 100 N6        29.98R FOG
CHILLICOTHE      N/A     71  67  87 CALM      29.93S
KIRKSVILLE     PTCLDY    69  65  86 W3        29.94R

$$
MOZ066>068-077>081-088>096-101>105-260500-
...SOUTHWEST MISSOURI...

CITY           SKY/WX    TMP DP  RH WIND       PRES   REMARKS
SPRINGFIELD    CLEAR     72  63  73 SE8       29.95R
JOPLIN         PTCLDY    74  65  73 SE6       29.93R
BRANSON        CLOUDY    73  63  68 CALM      29.98S

$$
MOZ032>034-039>042-045>050-055>058-069>072-260500-
...CENTRAL MISSOURI...

CITY           SKY/WX    TMP DP  RH WIND       PRES   REMARKS
COLUMBIA       CLEAR     73  66  78 SE7       29.94R
JEFFERSON CITY CLEAR     70  66  87 E3        29.93R
ROLLA          CLEAR     74  61  63 S8        29.97R
SEDALIA        PTCLDY    72  67  84 SE6       29.94R
WHITEMAN AFB   PTCLDY    70  70 100 S3        29.91R
WARRENSBURG    CLOUDY    72  64  78 CALM      29.91S
OSAGE BEACH    PTCLDY    72  63  73 CALM      29.95S

$$
MOZ051-052-059>065-260500-
...EAST CENTRAL MISSOURI...

CITY           SKY/WX    TMP DP  RH WIND       PRES   REMARKS
ST LOUIS INTL  CLEAR     81  62  52 S8        29.95R
SPIRIT OF STL  CLEAR     69  66  90 CALM      29.94R
ST CHARLES     CLEAR     70  65  84 CALM      29.94R

$$
MOZ072>076-082>087-097>100-106>115-260500-
...SOUTH CENTRAL AND SOUTHEAST MISSOURI...

CITY           SKY/WX    TMP DP  RH WIND       PRES   REMARKS
CAPE GIRARDEAU CLEAR     66  63  90 CALM      29.95R
FARMINGTON     CLEAR     69  62  78 CALM      29.98S
POPLAR BLUFF   CLEAR     68  65  90 CALM      29.95R
WEST PLAINS    CLEAR     72  62  71 CALM      29.99R

$$



USA.gov is the U.S. government's official web portal to all federal, state and local government web resources and services.